Location: Unspecified
(0.0000°N, 0.0000°E)
Time: 11:02:37
(UTC+00:00)

Vanguard 1 - Pass Details

Date: 19 November 2019
Orbit: 651 x 3832 km, 34.3° (Epoch: 14 December)

Event Time Altitude Azimuth Distance (km) Brightness Sun altitude
Rises 17:11:41 0° 328° (NNW) 3,037 12.8 7.9°
Reaches altitude 10° 17:13:59 10° 340° (NNW) 2,252 12.0 7.4°
Maximum altitude 17:18:28 30° 43° (NE) 1,600 10.8 6.3°
Drops below altitude 10° 17:25:02 10° 102° (ESE) 3,368 12.3 4.8°
Sets 17:29:19 0° 111° (ESE) 4,872 13.2 3.8°
